Location: Estes Par
(40.3770°N, 105.5210°W)
Time: 00:09:20
(UTC-06:00)

Hubble Space Telescope - Pass Details

Date: 09 October 2017
Orbit: 537 x 541 km, 28.5° (Epoch: 22 October)

Event Time Altitude Azimuth Distance (km) Brightness Sun altitude
Exits shadow 04:53:05 10° 155° (SSE) 1,752 3.5 -26.1°
Drops below altitude 10° 04:53:13 10° 153° (SSE) 1,779 3.5 -26.1°
Sets 04:56:20 0° 129° (SE) 2,672 4.8 -25.5°
